| time (UTC) | temp C | wind direction | speed KPH | gust KPH | rain 1hr cm | rain 24hr cm | rain mn cm | humidity % | barometer mb |
| 20260506080904 | 0 | 215 | 0.0 | 0.0 | 0.00 | 0.00 | 0.00 | 47 | 1016.8 |
| 20260506080405 | 0 | 215 | 0.0 | 0.0 | 0.00 | 0.00 | 0.00 | 46 | 1016.8 |
| 20260506072905 | 1 | 215 | 0.0 | 0.0 | 0.00 | 0.00 | 0.00 | 41 | 1016.5 |
| 20260506072404 | 1 | 215 | 0.0 | 0.0 | 0.00 | 0.00 | 0.00 | 41 | 1016.5 |
| 20260506071904 | 1 | 215 | 0.0 | 0.0 | 0.00 | 0.00 | 0.00 | 41 | 1016.5 |
| 20260506071404 | 1 | 215 | 0.0 | 11.3 | 0.00 | 0.00 | 0.00 | 39 | 1016.4 |
| 20260506070904 | 1 | 219 | 0.0 | 4.8 | 0.00 | 0.00 | 0.00 | 38 | 1016.3 |
| 20260506070404 | 2 | 257 | 0.0 | 0.0 | 0.00 | 0.00 | 0.00 | 38 | 1016.3 |
| 20260506062404 | 3 | 257 | 0.0 | 0.0 | 0.00 | 0.00 | 0.00 | 31 | 1016.2 |
| 20260506061404 | 3 | 257 | 0.0 | 0.0 | 0.00 | 0.00 | 0.00 | 31 | 1015.9 |
| 20260506060904 | 3 | 257 | 0.0 | 0.0 | 0.00 | 0.00 | 0.00 | 31 | 1015.9 |
| 20260506060404 | 3 | 257 | 0.0 | 0.0 | 0.00 | 0.00 | 0.00 | 31 | 1015.8 |
| 20260506051403 | 4 | 248 | 0.0 | 0.0 | 0.00 | 0.00 | 0.00 | 27 | 1015.6 |
| 20260506050905 | 4 | 252 | 0.0 | 0.0 | 0.00 | 0.00 | 0.00 | 27 | 1015.6 |
| 20260506050404 | 4 | 248 | 0.0 | 0.0 | 0.00 | 0.00 | 0.00 | 26 | 1015.4 |
| 20260506044904 | 4 | 238 | 1.6 | 8.0 | 0.00 | 0.00 | 0.00 | 30 | 1015.1 |
| 20260506044404 | 4 | 233 | 0.0 | 0.0 | 0.00 | 0.00 | 0.00 | 31 | 1015.5 |
| 20260506043904 | 4 | 232 | 0.0 | 0.0 | 0.00 | 0.00 | 0.00 | 33 | 1015.3 |
| 20260506043404 | 3 | 232 | 0.0 | 0.0 | 0.00 | 0.00 | 0.00 | 33 | 1015.5 |
| 20260506042404 | 3 | 231 | 0.0 | 0.0 | 0.00 | 0.00 | 0.00 | 37 | 1015.4 |
| 20260506041904 | 3 | 355 | 0.0 | 0.0 | 0.00 | 0.00 | 0.00 | 36 | 1015.3 |
| 20260506041404 | 3 | 34 | 0.0 | 0.0 | 0.00 | 0.00 | 0.00 | 38 | 1015.4 |
| 20260506035404 | 3 | 34 | 0.0 | 0.0 | 0.00 | 0.00 | 0.00 | 43 | 1015.4 |
| 20260506034904 | 3 | 34 | 0.0 | 0.0 | 0.00 | 0.00 | 0.00 | 44 | 1015.3 |
| 20260506034404 | 3 | 34 | 0.0 | 0.0 | 0.00 | 0.00 | 0.00 | 43 | 1015.5 |
| 20260506033904 | 3 | 34 | 0.0 | 0.0 | 0.00 | 0.00 | 0.00 | 43 | 1015.3 |
| 20260506033404 | 3 | 32 | 0.0 | 0.0 | 0.00 | 0.00 | 0.00 | 43 | 1015.5 |
| 20260506032904 | 3 | 32 | 0.0 | 0.0 | 0.00 | 0.00 | 0.00 | 45 | 1015.6 |
| 20260506032404 | 3 | 32 | 4.8 | 14.5 | 0.00 | 0.00 | 0.00 | 45 | 1015.3 |
| 20260506031904 | 3 | 13 | 8.0 | 19.3 | 0.00 | 0.00 | 0.00 | 44 | 1015.1 |
| 20260506031404 | 4 | 38 | 9.7 | 19.3 | 0.00 | 0.00 | 0.00 | 44 | 1015.2 |
| 20260506030907 | 4 | 48 | 8.0 | 16.1 | 0.00 | 0.00 | 0.00 | 47 | 1015.1 |
| 20260506030404 | 5 | 32 | 11.3 | 19.3 | 0.00 | 0.00 | 0.00 | 46 | 1015.1 |
| 20260506025904 | 5 | 0 | 8.0 | 20.9 | 0.00 | 0.00 | 0.00 | 44 | 1015.0 |
| 20260506025404 | 5 | 32 | 8.0 | 12.9 | 0.00 | 0.00 | 0.00 | 43 | 1014.6 |
| 20260506024904 | 5 | 35 | 8.0 | 19.3 | 0.00 | 0.00 | 0.00 | 43 | 1014.4 |
| 20260506024404 | 6 | 43 | 8.0 | 16.1 | 0.00 | 0.00 | 0.00 | 42 | 1014.1 |
| 20260506023904 | 6 | 43 | 1.6 | 14.5 | 0.00 | 0.00 | 0.00 | 40 | 1014.1 |
| 20260506023404 | 6 | 45 | 4.8 | 19.3 | 0.00 | 0.00 | 0.00 | 39 | 1013.8 |
| 20260506022903 | 6 | 36 | 11.3 | 24.1 | 0.00 | 0.00 | 0.00 | 37 | 1013.5 |
| 20260506021911 | 7 | 36 | 11.3 | 24.1 | 0.00 | 0.00 | 0.00 | 34 | 1013.0 |
| 20260506021404 | 7 | 33 | 4.8 | 12.9 | 0.00 | 0.00 | 0.00 | 31 | 1013.1 |
| 20260506020904 | 8 | 46 | 4.8 | 9.7 | 0.00 | 0.00 | 0.00 | 29 | 1012.6 |
| 20260506020404 | 8 | 37 | 6.4 | 19.3 | 0.00 | 0.00 | 0.00 | 27 | 1012.7 |
| 20260506015904 | 8 | 347 | 6.4 | 19.3 | 0.00 | 0.00 | 0.00 | 26 | 1012.4 |
| 20260506015404 | 8 | 35 | 3.2 | 16.1 | 0.00 | 0.00 | 0.00 | 24 | 1012.3 |
| 20260506014405 | 9 | 52 | 0.0 | 1.6 | 0.00 | 0.00 | 0.00 | 23 | 1012.1 |
| 20260506013904 | 10 | 324 | 0.0 | 14.5 | 0.00 | 0.00 | 0.00 | 22 | 1011.7 |
| 20260506013404 | 10 | 23 | 0.0 | 8.0 | 0.00 | 0.00 | 0.00 | 20 | 1011.6 |
| 20260506012905 | 10 | 33 | 1.6 | 8.0 | 0.00 | 0.00 | 0.00 | 19 | 1011.5 |
| 20260506012404 | 10 | 29 | 0.0 | 4.8 | 0.00 | 0.00 | 0.00 | 18 | 1011.6 |
| 20260506011905 | 11 | 54 | 0.0 | 11.3 | 0.00 | 0.00 | 0.00 | 18 | 1011.5 |
| 20260506011407 | 11 | 44 | 1.6 | 9.7 | 0.00 | 0.00 | 0.00 | 17 | 1011.3 |
| 20260506004904 | 12 | 48 | 1.6 | 8.0 | 0.00 | 0.00 | 0.00 | 15 | 1010.9 |
| 20260506004404 | 12 | 50 | 0.0 | 4.8 | 0.00 | 0.00 | 0.00 | 14 | 1011.0 |
| 20260506003904 | 12 | 5 | 0.0 | 14.5 | 0.00 | 0.00 | 0.00 | 16 | 1011.0 |
| 20260506003404 | 12 | 57 | 1.6 | 14.5 | 0.00 | 0.00 | 0.00 | 14 | 1011.0 |
| 20260506001905 | 11 | 32 | 3.2 | 16.1 | 0.00 | 0.00 | 0.00 | 15 | 1011.1 |
| 20260506001404 | 11 | 45 | 1.6 | 14.5 | 0.00 | 0.00 | 0.00 | 15 | 1011.1 |
| 20260506000904 | 11 | 45 | 1.6 | 14.5 | 0.00 | 0.00 | 0.00 | 13 | 1011.0 |
| 20260506000404 | 11 | 19 | 8.0 | 19.3 | 0.00 | 0.00 | 0.00 | 13 | 1010.9 |
| 20260505235903 | 11 | 32 | 6.4 | 14.5 | 0.00 | 0.00 | 0.00 | 12 | 1010.9 |
| 20260505235404 | 12 | 35 | 1.6 | 12.9 | 0.00 | 0.00 | 0.00 | 14 | 1010.9 |
| 20260505234904 | 12 | 50 | 1.6 | 8.0 | 0.00 | 0.00 | 0.00 | 13 | 1010.9 |
| 20260505234403 | 12 | 25 | 3.2 | 9.7 | 0.00 | 0.00 | 0.00 | 14 | 1010.9 |
| 20260505233904 | 12 | 15 | 3.2 | 14.5 | 0.00 | 0.00 | 0.00 | 13 | 1010.8 |
| 20260505233403 | 12 | 19 | 3.2 | 19.3 | 0.00 | 0.00 | 0.00 | 13 | 1010.8 |
| 20260505232404 | 13 | 38 | 8.0 | 20.9 | 0.00 | 0.00 | 0.00 | 10 | 1010.8 |
| 20260505231904 | 15 | 37 | 3.2 | 16.1 | 0.00 | 0.00 | 0.00 | 10 | 1010.7 |
| 20260505231404 | 15 | 243 | 1.6 | 22.5 | 0.00 | 0.00 | 0.00 | 10 | 1010.6 |
| 20260505230904 | 15 | 241 | 11.3 | 32.2 | 0.00 | 0.00 | 0.00 | 7 | 1010.6 |
| 20260505225904 | 15 | 249 | 9.7 | 16.1 | 0.00 | 0.00 | 0.00 | 7 | 1010.5 |
| 20260505225404 | 15 | 279 | 1.6 | 8.0 | 0.00 | 0.00 | 0.00 | 8 | 1010.4 |
| 20260505224904 | 15 | 272 | 11.3 | 32.2 | 0.00 | 0.00 | 0.00 | 6 | 1010.4 |
| 20260505223404 | 15 | 298 | 3.2 | 12.9 | 0.00 | 0.00 | 0.00 | 12 | 1010.3 |
| 20260505221404 | 14 | 202 | 3.2 | 27.4 | 0.00 | 0.00 | 0.00 | 9 | 1010.3 |
| 20260505220903 | 14 | 262 | 3.2 | 14.5 | 0.00 | 0.00 | 0.00 | 9 | 1010.3 |
| 20260505220404 | 14 | 356 | 14.5 | 33.8 | 0.00 | 0.00 | 0.00 | 11 | 1010.4 |
| 20260505215904 | 14 | 59 | 6.4 | 19.3 | 0.00 | 0.00 | 0.00 | 12 | 1010.1 |
| 20260505214904 | 14 | 48 | 4.8 | 11.3 | 0.00 | 0.00 | 0.00 | 10 | 1010.1 |
| 20260505214404 | 14 | 36 | 3.2 | 19.3 | 0.00 | 0.00 | 0.00 | 13 | 1010.2 |
| 20260505213904 | 14 | 248 | 1.6 | 19.3 | 0.00 | 0.00 | 0.00 | 15 | 1010.2 |
| 20260505212903 | 13 | 10 | 0.0 | 9.7 | 0.00 | 0.00 | 0.00 | 14 | 1010.3 |
| 20260505212404 | 13 | 273 | 3.2 | 12.9 | 0.00 | 0.00 | 0.00 | 19 | 1010.5 |
| 20260505211907 | 13 | 307 | 1.6 | 14.5 | 0.00 | 0.00 | 0.00 | 16 | 1010.3 |
| 20260505211404 | 12 | 9 | 1.6 | 11.3 | 0.00 | 0.00 | 0.00 | 14 | 1010.2 |
| 20260505210904 | 13 | 89 | 1.6 | 20.9 | 0.00 | 0.00 | 0.00 | 14 | 1010.3 |
| 20260505210405 | 13 | 358 | 0.0 | 4.8 | 0.00 | 0.00 | 0.00 | 16 | 1010.3 |
| 20260505205404 | 13 | 43 | 0.0 | 9.7 | 0.00 | 0.00 | 0.00 | 17 | 1010.2 |
| 20260505204905 | 13 | 42 | 6.4 | 25.7 | 0.00 | 0.00 | 0.00 | 15 | 1010.1 |
| 20260505204411 | 13 | 28 | 1.6 | 8.0 | 0.00 | 0.00 | 0.00 | 16 | 1010.2 |
| 20260505203904 | 13 | 51 | 4.8 | 16.1 | 0.00 | 0.00 | 0.00 | 15 | 1010.2 |
| 20260505203404 | 13 | 340 | 9.7 | 24.1 | 0.00 | 0.00 | 0.00 | 14 | 1010.3 |
| 20260505202904 | 13 | 238 | 1.6 | 8.0 | 0.00 | 0.00 | 0.00 | 17 | 1010.4 |
| 20260505202404 | 13 | 184 | 1.6 | 3.2 | 0.00 | 0.00 | 0.00 | 17 | 1010.3 |
| 20260505201904 | 13 | 336 | 0.0 | 16.1 | 0.00 | 0.00 | 0.00 | 13 | 1010.4 |
| 20260505201403 | 14 | 28 | 14.5 | 27.4 | 0.00 | 0.00 | 0.00 | 14 | 1010.3 |
| 20260505200405 | 13 | 238 | 3.2 | 19.3 | 0.00 | 0.00 | 0.00 | 17 | 1010.3 |
| 20260505195404 | 14 | 39 | 3.2 | 19.3 | 0.00 | 0.00 | 0.00 | 14 | 1010.3 |
| 20260505194404 | 14 | 242 | 1.6 | 14.5 | 0.00 | 0.00 | 0.00 | 14 | 1010.4 |
| 20260505193911 | 13 | 38 | 6.4 | 22.5 | 0.00 | 0.00 | 0.00 | 15 | 1010.4 |
| 20260505192904 | 13 | 281 | 0.0 | 25.7 | 0.00 | 0.00 | 0.00 | 16 | 1010.5 |
| 20260505191404 | 13 | 39 | 3.2 | 11.3 | 0.00 | 0.00 | 0.00 | 16 | 1010.6 |
| 20260505190405 | 13 | 33 | 3.2 | 14.5 | 0.00 | 0.00 | 0.00 | 18 | 1010.8 |
| 20260505185904 | 12 | 45 | 6.4 | 16.1 | 0.00 | 0.00 | 0.00 | 17 | 1010.7 |
| 20260505185404 | 13 | 56 | 8.0 | 14.5 | 0.00 | 0.00 | 0.00 | 16 | 1010.7 |
| 20260505184904 | 13 | 56 | 8.0 | 14.5 | 0.00 | 0.00 | 0.00 | 17 | 1010.8 |
| 20260505184404 | 13 | 47 | 8.0 | 19.3 | 0.00 | 0.00 | 0.00 | 17 | 1010.9 |
| 20260505183904 | 13 | 51 | 3.2 | 11.3 | 0.00 | 0.00 | 0.00 | 16 | 1011.0 |
| 20260505183404 | 13 | 33 | 4.8 | 19.3 | 0.00 | 0.00 | 0.00 | 16 | 1011.0 |
| 20260505182904 | 13 | 247 | 3.2 | 12.9 | 0.00 | 0.00 | 0.00 | 17 | 1011.1 |
| 20260505182404 | 13 | 31 | 8.0 | 19.3 | 0.00 | 0.00 | 0.00 | 17 | 1011.0 |
| 20260505181904 | 13 | 235 | 4.8 | 14.5 | 0.00 | 0.00 | 0.00 | 18 | 1011.0 |
| 20260505181404 | 13 | 226 | 1.6 | 11.3 | 0.00 | 0.00 | 0.00 | 18 | 1011.0 |
| 20260505180905 | 13 | 248 | 3.2 | 19.3 | 0.00 | 0.00 | 0.00 | 20 | 1011.1 |
| 20260505180404 | 13 | 31 | 4.8 | 16.1 | 0.00 | 0.00 | 0.00 | 18 | 1011.1 |
| 20260505175904 | 13 | 336 | 1.6 | 16.1 | 0.00 | 0.00 | 0.00 | 15 | 1011.1 |
| 20260505175404 | 13 | 351 | 1.6 | 9.7 | 0.00 | 0.00 | 0.00 | 18 | 1011.3 |
| 20260505174904 | 13 | 50 | 3.2 | 14.5 | 0.00 | 0.00 | 0.00 | 21 | 1011.3 |
| 20260505174404 | 13 | 52 | 1.6 | 8.0 | 0.00 | 0.00 | 0.00 | 20 | 1011.4 |
| 20260505173904 | 13 | 349 | 1.6 | 8.0 | 0.00 | 0.00 | 0.00 | 22 | 1011.5 |
| 20260505173403 | 12 | 229 | 0.0 | 12.9 | 0.00 | 0.00 | 0.00 | 20 | 1011.5 |
| 20260505172905 | 12 | 272 | 0.0 | 14.5 | 0.00 | 0.00 | 0.00 | 20 | 1011.5 |
| 20260505172404 | 12 | 44 | 1.6 | 14.5 | 0.00 | 0.00 | 0.00 | 21 | 1011.6 |
| 20260505171904 | 13 | 17 | 3.2 | 19.3 | 0.00 | 0.00 | 0.00 | 20 | 1011.4 |
| 20260505171404 | 13 | 5 | 1.6 | 8.0 | 0.00 | 0.00 | 0.00 | 21 | 1011.5 |
| 20260505170911 | 13 | 30 | 0.0 | 4.8 | 0.00 | 0.00 | 0.00 | 23 | 1011.5 |
| 20260505170404 | 13 | 63 | 3.2 | 16.1 | 0.00 | 0.00 | 0.00 | 22 | 1011.6 |
| 20260505165904 | 13 | 62 | 3.2 | 4.8 | 0.00 | 0.00 | 0.00 | 24 | 1011.5 |
| 20260505165404 | 13 | 304 | 0.0 | 3.2 | 0.00 | 0.00 | 0.00 | 25 | 1011.6 |
| 20260505164910 | 13 | 308 | 0.0 | 0.0 | 0.00 | 0.00 | 0.00 | 25 | 1011.6 |
| 20260505163904 | 12 | 307 | 1.6 | 9.7 | 0.00 | 0.00 | 0.00 | 25 | 1011.7 |
| 20260505163404 | 12 | 232 | 1.6 | 8.0 | 0.00 | 0.00 | 0.00 | 28 | 1011.7 |
| 20260505162404 | 12 | 103 | 0.0 | 4.8 | 0.00 | 0.00 | 0.00 | 31 | 1011.7 |
| 20260505161904 | 12 | 170 | 0.0 | 9.7 | 0.00 | 0.00 | 0.00 | 30 | 1011.8 |
| 20260505161404 | 12 | 121 | 0.0 | 4.8 | 0.00 | 0.00 | 0.00 | 32 | 1011.8 |
| 20260505160904 | 12 | 103 | 0.0 | 3.2 | 0.00 | 0.00 | 0.00 | 32 | 1011.8 |
| 20260505160404 | 12 | 150 | 0.0 | 3.2 | 0.00 | 0.00 | 0.00 | 32 | 1011.9 |
| 20260505152904 | 10 | 223 | 1.6 | 9.7 | 0.00 | 0.00 | 0.00 | 38 | 1012.2 |
| 20260505152404 | 10 | 215 | 0.0 | 0.0 | 0.00 | 0.00 | 0.00 | 38 | 1012.2 |
| 20260505151904 | 9 | 215 | 0.0 | 8.0 | 0.00 | 0.00 | 0.00 | 40 | 1012.4 |
| 20260505151404 | 9 | 218 | 3.2 | 9.7 | 0.00 | 0.00 | 0.00 | 42 | 1012.4 |
| 20260505150904 | 8 | 224 | 3.2 | 8.0 | 0.00 | 0.00 | 0.00 | 42 | 1012.4 |
| 20260505124407 | 6 | 252 | 0.0 | 0.0 | 0.00 | 0.00 | 0.00 | 53 | 1012.3 |
| 20260505123903 | 6 | 252 | 0.0 | 0.0 | 0.00 | 0.00 | 0.00 | 53 | 1012.2 |
| 20260505122904 | 6 | 252 | 0.0 | 0.0 | 0.00 | 0.00 | 0.00 | 52 | 1012.2 |
| 20260505121904 | 6 | 253 | 0.0 | 0.0 | 0.00 | 0.00 | 0.00 | 51 | 1012.2 |
| 20260505121404 | 6 | 252 | 0.0 | 0.0 | 0.00 | 0.00 | 0.00 | 50 | 1012.3 |
| 20260505120903 | 6 | 240 | 0.0 | 0.0 | 0.00 | 0.00 | 0.00 | 49 | 1012.4 |
| 20260505120405 | 6 | 240 | 0.0 | 0.0 | 0.00 | 0.00 | 0.00 | 49 | 1012.4 |
| 20260505115904 | 6 | 161 | 0.0 | 0.0 | 0.00 | 0.00 | 0.00 | 49 | 1012.4 |
| 20260505114904 | 6 | 122 | 0.0 | 4.8 | 0.00 | 0.00 | 0.00 | 49 | 1012.2 |
| 20260505114405 | 7 | 224 | 0.0 | 4.8 | 0.00 | 0.00 | 0.00 | 48 | 1012.3 |
| 20260505113405 | 7 | 248 | 0.0 | 0.0 | 0.00 | 0.00 | 0.00 | 50 | 1012.4 |
| 20260505112904 | 7 | 15 | 0.0 | 0.0 | 0.00 | 0.00 | 0.00 | 49 | 1012.2 |
| 20260505112404 | 7 | 15 | 0.0 | 0.0 | 0.00 | 0.00 | 0.00 | 49 | 1012.3 |
| 20260505111904 | 7 | 15 | 0.0 | 4.8 | 0.00 | 0.00 | 0.00 | 49 | 1012.3 |
| 20260505111404 | 7 | 277 | 0.0 | 0.0 | 0.00 | 0.00 | 0.00 | 49 | 1012.2 |
| 20260505110904 | 7 | 277 | 0.0 | 0.0 | 0.00 | 0.00 | 0.00 | 49 | 1012.2 |
| 20260505101903 | 5 | 5 | 0.0 | 0.0 | 0.00 | 0.00 | 0.00 | 63 | 1012.2 |
| 20260505101405 | 5 | 5 | 0.0 | 0.0 | 0.00 | 0.00 | 0.00 | 63 | 1012.2 |
| 20260505100904 | 5 | 5 | 0.0 | 0.0 | 0.00 | 0.00 | 0.00 | 64 | 1012.2 |
| 20260505100404 | 5 | 5 | 0.0 | 0.0 | 0.00 | 0.00 | 0.00 | 64 | 1012.2 |
| 20260505095904 | 5 | 5 | 0.0 | 0.0 | 0.00 | 0.00 | 0.00 | 63 | 1012.1 |
| 20260505095404 | 5 | 5 | 0.0 | 0.0 | 0.00 | 0.00 | 0.00 | 63 | 1012.0 |
| 20260505094904 | 5 | 5 | 0.0 | 0.0 | 0.00 | 0.00 | 0.00 | 64 | 1012.1 |
| 20260505094404 | 5 | 5 | 0.0 | 0.0 | 0.00 | 0.00 | 0.00 | 63 | 1012.0 |
| 20260505093904 | 5 | 5 | 0.0 | 0.0 | 0.00 | 0.00 | 0.00 | 64 | 1012.1 |
| 20260505093404 | 5 | 5 | 0.0 | 0.0 | 0.00 | 0.00 | 0.00 | 64 | 1012.0 |
| 20260505092904 | 5 | 5 | 0.0 | 0.0 | 0.00 | 0.00 | 0.00 | 64 | 1012.0 |
| 20260505092404 | 5 | 5 | 0.0 | 0.0 | 0.00 | 0.00 | 0.00 | 64 | 1011.9 |
| 20260505091904 | 5 | 5 | 0.0 | 0.0 | 0.00 | 0.00 | 0.00 | 64 | 1011.9 |
| 20260505091404 | 5 | 5 | 0.0 | 0.0 | 0.00 | 0.00 | 0.00 | 64 | 1012.0 |
| 20260505090904 | 5 | 5 | 0.0 | 0.0 | 0.00 | 0.00 | 0.00 | 64 | 1012.0 |
| 20260505090404 | 5 | 5 | 0.0 | 0.0 | 0.00 | 0.00 | 0.00 | 63 | 1011.9 |
| 20260505085904 | 5 | 5 | 0.0 | 0.0 | 0.00 | 0.00 | 0.00 | 63 | 1011.8 |
| 20260505085404 | 5 | 5 | 0.0 | 0.0 | 0.00 | 0.00 | 0.00 | 63 | 1011.8 |
| 20260505084903 | 5 | 5 | 0.0 | 0.0 | 0.00 | 0.00 | 0.00 | 63 | 1011.9 |
| 20260505084404 | 5 | 5 | 0.0 | 0.0 | 0.00 | 0.00 | 0.00 | 63 | 1011.9 |
| 20260505083904 | 5 | 5 | 0.0 | 0.0 | 0.00 | 0.00 | 0.00 | 64 | 1011.9 |
| 20260505082904 | 5 | 5 | 0.0 | 0.0 | 0.00 | 0.00 | 0.00 | 64 | 1011.9 |
| 20260505082404 | 5 | 5 | 0.0 | 0.0 | 0.00 | 0.00 | 0.00 | 64 | 1012.0 |
| 20260505081904 | 5 | 5 | 0.0 | 0.0 | 0.00 | 0.00 | 0.00 | 63 | 1012.2 |
| 20260505081404 | 5 | 5 | 0.0 | 0.0 | 0.00 | 0.00 | 0.00 | 63 | 1012.1 |